Location: Feudal
(51.8839°N, 107.6105°W)
Time: 10:31:00
(UTC+00:00)

N. Korean satellite - Visible Passes

Search period start: 26 January 2022 00:00
Search period end: 05 February 2022 00:00
Orbit: 447 x 491 km, 97.3° (Epoch: 25 January)

Date Brightness Start Highest point End Pass type
(mag) Time Alt. Az. Time Alt. Az. Time Alt. Az.
26 Jan 9.9 00:45:51 10° WSW 00:47:27 13° W 00:49:04 10° WNW visible
26 Jan 8.1 12:02:37 10° NNE 12:06:01 35° E 12:08:05 19° SSE visible
26 Jan 7.7 13:36:04 10° NNW 13:39:00 23° WNW 13:41:55 10° WSW visible
27 Jan 9.4 11:34:01 10° NE 11:36:35 18° E 11:39:00 11° SE visible
27 Jan 6.8 13:06:27 10° N 13:09:57 44° WNW 13:13:04 12° SW visible
28 Jan 6.5 12:37:06 10° NNE 12:40:46 87° E 12:44:00 13° SSW visible
28 Jan 8.5 14:12:01 10° NW 14:13:20 12° WNW 14:14:38 10° WNW visible
29 Jan 10.1 00:51:51 10° WSW 00:52:57 11° W 00:54:03 10° WNW visible
29 Jan 7.9 12:07:59 10° NNE 12:11:28 40° E 12:14:54 10° S visible
29 Jan 7.9 13:41:36 10° NNW 13:44:23 21° WNW 13:47:08 10° WSW visible
30 Jan 9.2 11:39:14 10° NE 11:42:01 20° E 11:44:47 10° SE visible
30 Jan 7.0 13:11:53 10° N 13:15:18 39° WNW 13:18:42 10° SW visible
31 Jan 10.0 11:11:47 10° ENE 11:12:26 10° E 11:13:04 10° E visible
31 Jan 6.4 12:42:27 10° NNE 12:46:06 82° WNW 12:49:43 10° SSW visible
01 Feb 7.6 12:13:14 10° NNE 12:16:46 46° E 12:20:15 10° S visible
01 Feb 8.0 13:47:01 10° NNW 13:49:37 19° WNW 13:52:11 10° WSW visible
02 Feb 9.0 11:44:20 10° NE 11:47:17 23° E 11:50:13 10° SSE visible
02 Feb 7.2 13:17:11 10° N 13:20:31 34° WNW 13:23:48 10° SW visible
03 Feb 9.9 11:16:18 10° ENE 11:17:41 12° E 11:19:03 10° ESE visible
03 Feb 6.4 12:47:38 10° N 12:51:17 71° WNW 12:54:53 10° SSW visible
04 Feb 7.3 12:18:20 10° NNE 12:21:55 53° E 12:25:27 10° S visible
04 Feb 8.1 13:52:19 10° NNW 13:54:41 17° WNW 13:57:03 10° WSW visible
